Weather in Diablo

United States     37°52′40″N   121°56′02″W
temp.,
°C
wind,
m/s
gust,
m/s
humid.,
%
clouds,
%
prec.,
mm/h
press.,
hPa
HPBL,
m
16 may, sun
sun1623:00+12wsw3577100 0.0 1011259
02:00+11sw3682100 0.0 1011267
05:00+11sw2481100 0.0 1012241
08:00+13wsw23749 0.1 1014446
11:00+19wsw33484 0.1 1013784
14:00+21wsw56430 0.0 1013693
17:00+19sw68480 0.0 1012539
20:00+13sw59711 0.0 1013426
17 may, mon
mon1723:00+11sw49803 0.0 1014375
02:00+11sw498134 0.0 1014468
05:00+11sw488055 0.0 1015491
08:00+12sw46707 0.0 1016528
11:00+19wsw33440 0.0 1016803
14:00+22sw55370 0.0 1015857
17:00+20sw6747100 0.0 1014622
20:00+14ssw586557 0.0 1014240
18 may, tue
tue1823:00+11ssw47799 0.0 1015172
02:00+10ssw36856 0.0 1015179
05:00+9ssw35887 0.0 1016164
08:00+13sw24680 0.0 1017276
11:00+21w45310 0.0 1016841
14:00+24sw66250 0.0 10151072
17:00+23wsw68180 0.0 1014928
20:00+16ssw510380 0.0 1014479
19 may, wed
wed1923:00+11ssw5116310 0.0 1014412
02:00+10ssw496711 0.0 1014373
05:00+8ssw37772 0.0 1014220
08:00+12sw46525 0.0 1015587
11:00+17w45260 0.0 10141117
14:00+21wsw56220 0.0 10121465
17:00+20wsw77270 0.0 10111147
20:00+13wsw69450 0.0 1012588
20 may, thu
thu2023:00+10sw611600 0.0 1013592
02:00+9sw511600 0.0 1013606
05:00+8wsw510540 0.0 1014718
08:00+11w510420 0.0 1016921
11:00+15nw47280 0.0 10161816
14:00+20wnw451840 0.0 10133145
17:00+18w782644 0.0 10122312
20:00+15w47365 0.0 1013854